Location: Fort Worth, Tx
(32.7431°N, 97.3695°W)
Time: 07:19:09
(UTC-04:00)

Explorer 11/Cluster Stage 4 - Pass Details

Date: 04 February 2023
Orbit: 466 x 1241 km, 28.8° (Epoch: 02 April)

Event Time Altitude Azimuth Distance (km) Brightness Sun altitude
Exits shadow 04:42:34 22° 116° (ESE) 2,319 9.2 -46.4°
Drops below altitude 10° 04:45:58 10° 96° (E) 3,171 10.2 -45.7°
Sets 04:49:20 0° 87° (E) 4,167 11.0 -45.0°
